Terminal Aerodrome Forecast
Issued by NWS

Current Version | Previous Version | Text Only | Print | Product List | Glossary On
Versions: 1 2 3 4 5 6 7 8 9 10 11 12 13 14 15 16 17 18 19 20 21 22 23 24 25 26 27 28 29 30 31 32 33
000
FTUS41 KCTP 010601 RRA
TAFBFD
TAF
KBFD 010601Z 0106/0206 04005KT 6SM -DZ BR OVC004
     FM011200 35010KT 4SM -RA BR OVC007
     FM011800 36015G20KT P6SM VCSH OVC015=

USA.gov is the U.S. government's official web portal to all federal, state and local government web resources and services.